Location: Unspecified
(0.0000°N, 0.0000°E)
Time: 19:02:45
(UTC+00:00)

Vanguard 1 Rocket - Pass Details

Date: 25 November 2019
Orbit: 650 x 4226 km, 34.3° (Epoch: 09 December)

Event Time Altitude Azimuth Distance (km) Brightness Sun altitude
Rises 14:09:51 0° 247° (WSW) 6,776 12.5 49.4°
Reaches altitude 10° 14:15:56 10° 232° (SW) 6,316 12.6 48.1°
Maximum altitude 14:31:39 23° 186° (S) 6,193 12.3 44.7°
Drops below altitude 10° 14:50:06 10° 141° (SE) 7,340 12.0 40.7°
Sets 14:58:18 0° 127° (SE) 8,066 12.0 38.9°
